date,time,press
2021-03-01,00:00,1000.4
2021-03-01,01:00,1002.2
2021-03-01,02:00,1001.2
2021-03-01,03:00,1001.3
2021-03-01,04:00,1000.5
2021-03-01,05:00,998.8
2021-03-01,06:00,1000.7
2021-03-01,07:00,1000.9
2021-03-01,08:00,1005.7
2021-03-01,09:00,1007.5
2021-03-01,10:00,1009.2
2021-03-01,11:00,1009.3
2021-03-01,12:00,1008.3
2021-03-01,13:00,1007
2021-03-01,14:00,1005.8
2021-03-01,15:00,1002.5
2021-03-01,16:00,996.8
2021-03-01,17:00,994.7
2021-03-01,18:00,996
2021-03-01,19:00,1003
2021-03-01,20:00,1004.4
2021-03-01,21:00,998.7
2021-03-01,22:00,1002.7
2021-03-01,23:00,999.1
2021-03-02,00:00,1001.5
2021-03-02,01:00,1002.3
2021-03-02,02:00,1001
2021-03-02,03:00,1002
2021-03-02,04:00,1003.1
2021-03-02,05:00,982.4
2021-03-02,06:00,991.9
2021-03-02,07:00,993.1
2021-03-02,08:00,992.7
2021-03-02,09:00,989.4
2021-03-02,10:00,991.2
2021-03-02,11:00,980.5
2021-03-02,12:00,988.9
2021-03-02,13:00,967.9
2021-03-02,14:00,972.6
2021-03-02,15:00,942.5
2021-03-02,16:00,938.8
2021-03-02,17:00,992.3
2021-03-02,18:00,956.7
2021-03-02,19:00,972.6
2021-03-02,20:00,995.3
2021-03-02,21:00,980.4
2021-03-02,22:00,996.2
2021-03-02,23:00,992.6
2021-03-03,00:00,-999
2021-03-03,01:00,-999
2021-03-03,02:00,937.8
2021-03-03,03:00,988.1
2021-03-03,04:00,980.6
2021-03-03,05:00,997.9
2021-03-03,06:00,1002.7
2021-03-03,07:00,997.4
2021-03-03,08:00,1003.1
2021-03-03,09:00,992.7
2021-03-03,10:00,987.5
2021-03-03,11:00,990.2
2021-03-03,12:00,989.2
2021-03-03,13:00,988.2
2021-03-03,14:00,971.7
2021-03-03,15:00,988.2
2021-03-03,16:00,981
2021-03-03,17:00,977.4
2021-03-03,18:00,987.8
2021-03-03,19:00,981.8
2021-03-03,20:00,982.6
2021-03-03,21:00,996.1
2021-03-03,22:00,994.2
2021-03-03,23:00,994.5
2021-03-04,00:00,994.7
2021-03-04,01:00,1000.3
2021-03-04,02:00,1002.3
2021-03-04,03:00,1004.1
2021-03-04,04:00,999.7
2021-03-04,05:00,989.7
2021-03-04,06:00,995.6
2021-03-04,07:00,993.6
2021-03-04,08:00,998.7
2021-03-04,09:00,993.4
2021-03-04,10:00,993.1
2021-03-04,11:00,986.5
2021-03-04,12:00,991.9
2021-03-04,13:00,984.9
2021-03-04,14:00,981.5
2021-03-04,15:00,985.8
2021-03-04,16:00,980.8
2021-03-04,17:00,991.4
2021-03-04,18:00,992.1
2021-03-04,19:00,989.9
2021-03-04,20:00,990.8
2021-03-04,21:00,993.3
2021-03-04,22:00,990.3
2021-03-04,23:00,996.4
2021-03-05,00:00,998
2021-03-05,01:00,996
2021-03-05,02:00,989.4
2021-03-05,03:00,999.1
2021-03-05,04:00,996.2
2021-03-05,05:00,998.5
2021-03-05,06:00,997.5
2021-03-05,07:00,994.9
2021-03-05,08:00,996.5
2021-03-05,09:00,1001.2
2021-03-05,10:00,1004.8
2021-03-05,11:00,998.5
2021-03-05,12:00,1001.4
2021-03-05,13:00,992
2021-03-05,14:00,986.4
2021-03-05,15:00,989
2021-03-05,16:00,989.9
2021-03-05,17:00,987.2
2021-03-05,18:00,989
2021-03-05,19:00,994
2021-03-05,20:00,999.4
2021-03-05,21:00,995.9
2021-03-05,22:00,997
2021-03-05,23:00,1001.1
2021-03-06,00:00,1001.3
2021-03-06,01:00,1001.5
2021-03-06,02:00,1000.8
2021-03-06,03:00,996.5
2021-03-06,04:00,1000.3
2021-03-06,05:00,992.9
2021-03-06,06:00,991.3
2021-03-06,07:00,991.4
2021-03-06,08:00,1001.9
2021-03-06,09:00,1000.5
2021-03-06,10:00,990.6
2021-03-06,11:00,1000.6
2021-03-06,12:00,987.4
2021-03-06,13:00,996.7
2021-03-06,14:00,985
2021-03-06,15:00,992.7
2021-03-06,16:00,998.2
2021-03-06,17:00,998.8
2021-03-06,18:00,958
2021-03-06,19:00,933.8
2021-03-06,20:00,962.8
2021-03-06,21:00,979.8
2021-03-06,22:00,978.4
2021-03-06,23:00,980.8
2021-03-07,00:00,998.1
2021-03-07,01:00,985.5
2021-03-07,02:00,976.8
2021-03-07,03:00,-999
2021-03-07,04:00,967.7
2021-03-07,05:00,944.4
2021-03-07,06:00,986.8
2021-03-07,07:00,986.9
2021-03-07,08:00,997.5
2021-03-07,09:00,1005.7
2021-03-07,10:00,1004.8
2021-03-07,11:00,1008
2021-03-07,12:00,1001.6
2021-03-07,13:00,1003.3
2021-03-07,14:00,-999
2021-03-07,15:00,-999
2021-03-07,16:00,-999
2021-03-07,17:00,-999
2021-03-07,18:00,-999
2021-03-07,19:00,-999
2021-03-07,20:00,-999
2021-03-07,21:00,957.4
2021-03-07,22:00,-999
2021-03-07,23:00,-999
2021-03-08,00:00,893
2021-03-08,01:00,986.3
2021-03-08,02:00,1002.3
2021-03-08,03:00,1000.7
2021-03-08,04:00,1004.7
2021-03-08,05:00,999.6
2021-03-08,06:00,991
2021-03-08,07:00,994
2021-03-08,08:00,992.3
2021-03-08,09:00,998.5
2021-03-08,10:00,-999
2021-03-08,11:00,1002.9
2021-03-08,12:00,1007.3
2021-03-08,13:00,994.6
2021-03-08,14:00,997
2021-03-08,15:00,993.3
2021-03-08,16:00,1000.3
2021-03-08,17:00,996.3
2021-03-08,18:00,999.5
2021-03-08,19:00,1000.6
2021-03-08,20:00,1001.3
2021-03-08,21:00,1000.3
2021-03-08,22:00,991.9
2021-03-08,23:00,988.8
2021-03-09,00:00,986.2
2021-03-09,01:00,995.8
2021-03-09,02:00,996.9
2021-03-09,03:00,999.6
2021-03-09,04:00,1000.7
2021-03-09,05:00,999.7
2021-03-09,06:00,995.9
2021-03-09,07:00,998.6
2021-03-09,08:00,986
2021-03-09,09:00,1002.5
2021-03-09,10:00,992.7
2021-03-09,11:00,998.4
2021-03-09,12:00,947
2021-03-09,13:00,931.8
2021-03-09,14:00,-999
2021-03-09,15:00,-999
2021-03-09,16:00,-999
2021-03-09,17:00,-999
2021-03-09,18:00,980.8
2021-03-09,19:00,978.7
2021-03-09,20:00,962
2021-03-09,21:00,949.8
2021-03-09,22:00,958.8
2021-03-09,23:00,942.4
2021-03-10,00:00,900.6
2021-03-10,01:00,986
2021-03-10,02:00,999.1
2021-03-10,03:00,998
2021-03-10,04:00,992
2021-03-10,05:00,1002.4
2021-03-10,06:00,988.8
2021-03-10,07:00,1000.3
2021-03-10,08:00,985.6
2021-03-10,09:00,1000.2
2021-03-10,10:00,1003.2
2021-03-10,11:00,1001.9
2021-03-10,12:00,990
2021-03-10,13:00,997.2
2021-03-10,14:00,993.2
2021-03-10,15:00,982.9
2021-03-10,16:00,989.7
2021-03-10,17:00,986.9
2021-03-10,18:00,978.8
2021-03-10,19:00,982.4
2021-03-10,20:00,983
2021-03-10,21:00,976.7
2021-03-10,22:00,979.6
2021-03-10,23:00,981.6
2021-03-11,00:00,981.8
2021-03-11,01:00,991.6
2021-03-11,02:00,992.8
2021-03-11,03:00,990.8
2021-03-11,04:00,996.3
2021-03-11,05:00,999.2
2021-03-11,06:00,1001.7
2021-03-11,07:00,991
2021-03-11,08:00,987.4
2021-03-11,09:00,1008.2
2021-03-11,10:00,1009.3
2021-03-11,11:00,1009.3
2021-03-11,12:00,1008.4
2021-03-11,13:00,1006.5
2021-03-11,14:00,991.4
2021-03-11,15:00,984.7
2021-03-11,16:00,987.5
2021-03-11,17:00,976.3
2021-03-11,18:00,970.6
2021-03-11,19:00,982.3
2021-03-11,20:00,997.5
2021-03-11,21:00,992.6
2021-03-11,22:00,998.3
2021-03-11,23:00,1000.3
2021-03-12,00:00,999.7
2021-03-12,01:00,997
2021-03-12,02:00,994.4
2021-03-12,03:00,1000
2021-03-12,04:00,995.5
2021-03-12,05:00,1001.3
2021-03-12,06:00,1001.8
2021-03-12,07:00,999.9
2021-03-12,08:00,997.9
2021-03-12,09:00,987.8
2021-03-12,10:00,984.6
2021-03-12,11:00,980.7
2021-03-12,12:00,976
2021-03-12,13:00,951.6
2021-03-12,14:00,967.8
2021-03-12,15:00,970.1
2021-03-12,16:00,912.7
2021-03-12,17:00,885.9
2021-03-12,18:00,879.4
2021-03-12,19:00,949.9
2021-03-12,20:00,976.9
2021-03-12,21:00,967.3
2021-03-12,22:00,955.9
2021-03-12,23:00,989.8
2021-03-13,00:00,987.1
2021-03-13,01:00,1003.2
2021-03-13,02:00,1002.4
2021-03-13,03:00,994
2021-03-13,04:00,996.6
2021-03-13,05:00,995.8
2021-03-13,06:00,1000.3
2021-03-13,07:00,1003.3
2021-03-13,08:00,993.2
2021-03-13,09:00,996.8
2021-03-13,10:00,995.3
2021-03-13,11:00,989.9
2021-03-13,12:00,985.3
2021-03-13,13:00,987.2
2021-03-13,14:00,984.1
2021-03-13,15:00,985.3
2021-03-13,16:00,987.7
2021-03-13,17:00,968.2
2021-03-13,18:00,952.9
2021-03-13,19:00,982.7
2021-03-13,20:00,989.6
2021-03-13,21:00,994.7
2021-03-13,22:00,995.3
2021-03-13,23:00,995.1
2021-03-14,00:00,990.7
2021-03-14,01:00,1001.2
2021-03-14,02:00,1001
2021-03-14,03:00,996.9
2021-03-14,04:00,998.1
2021-03-14,05:00,996.9
2021-03-14,06:00,988.6
2021-03-14,07:00,1002.4
2021-03-14,08:00,1003.7
2021-03-14,09:00,1001.6
2021-03-14,10:00,1002.1
2021-03-14,11:00,993.6
2021-03-14,12:00,993.7
2021-03-14,13:00,987.7
2021-03-14,14:00,988.3
2021-03-14,15:00,993.4
2021-03-14,16:00,979.8
2021-03-14,17:00,979.2
2021-03-14,18:00,996.5
2021-03-14,19:00,991.5
2021-03-14,20:00,997.4
2021-03-14,21:00,996.4
2021-03-14,22:00,999.4
2021-03-14,23:00,993.1
2021-03-15,00:00,997.4
2021-03-15,01:00,993.7
2021-03-15,02:00,995.4
2021-03-15,03:00,994.6
2021-03-15,04:00,984.8
2021-03-15,05:00,963.5
2021-03-15,06:00,987.1
2021-03-15,07:00,937.8
2021-03-15,08:00,994.8
2021-03-15,09:00,993.5
2021-03-15,10:00,-999
2021-03-15,11:00,-999
2021-03-15,12:00,-999
2021-03-15,13:00,-999
2021-03-15,14:00,-999
2021-03-15,15:00,-999
2021-03-15,16:00,-999
2021-03-15,17:00,-999
2021-03-15,18:00,-999
2021-03-15,19:00,-999
2021-03-15,20:00,-999
2021-03-15,21:00,-999
2021-03-15,22:00,-999
2021-03-15,23:00,857.8
2021-03-16,00:00,934.8
2021-03-16,01:00,965.6
2021-03-16,02:00,963.2
2021-03-16,03:00,983.1
2021-03-16,04:00,989.9
2021-03-16,05:00,997.2
2021-03-16,06:00,1000.7
2021-03-16,07:00,973
2021-03-16,08:00,955
2021-03-16,09:00,-999
2021-03-16,10:00,-999
2021-03-16,11:00,-999
2021-03-16,12:00,-999
2021-03-16,13:00,-999
2021-03-16,14:00,-999
2021-03-16,15:00,-999
2021-03-16,16:00,-999
2021-03-16,17:00,-999
2021-03-16,18:00,-999
2021-03-16,19:00,-999
2021-03-16,20:00,-999
2021-03-16,21:00,-999
2021-03-16,22:00,-999
2021-03-16,23:00,973.7
2021-03-17,00:00,922.8
2021-03-17,01:00,937.5
2021-03-17,02:00,988.9
2021-03-17,03:00,993.8
2021-03-17,04:00,998
2021-03-17,05:00,1000.9
2021-03-17,06:00,1000.5
2021-03-17,07:00,998.5
2021-03-17,08:00,1002.3
2021-03-17,09:00,-999
2021-03-17,10:00,989.9
2021-03-17,11:00,964.5
2021-03-17,12:00,973.8
2021-03-17,13:00,986.5
2021-03-17,14:00,-999
2021-03-17,15:00,-999
2021-03-17,16:00,-999
2021-03-17,17:00,-999
2021-03-17,18:00,969.6
2021-03-17,19:00,980.2
2021-03-17,20:00,975.3
2021-03-17,21:00,962.7
2021-03-17,22:00,-999
2021-03-17,23:00,-999
2021-03-18,00:00,-999
2021-03-18,01:00,-999
2021-03-18,02:00,-999
2021-03-18,03:00,-999
2021-03-18,04:00,951
2021-03-18,05:00,971.2
2021-03-18,06:00,971.1
2021-03-18,07:00,973.9
2021-03-18,08:00,982.5
2021-03-18,09:00,998.4
2021-03-18,10:00,992.8
2021-03-18,11:00,999.6
2021-03-18,12:00,999.4
2021-03-18,13:00,998.6
2021-03-18,14:00,999.2
2021-03-18,15:00,-999
2021-03-18,16:00,-999
2021-03-18,17:00,-999
2021-03-18,18:00,991.5
2021-03-18,19:00,996.2
2021-03-18,20:00,997
2021-03-18,21:00,989
2021-03-18,22:00,994.5
2021-03-18,23:00,999.7
2021-03-19,00:00,996
2021-03-19,01:00,992.9
2021-03-19,02:00,997.6
2021-03-19,03:00,1001.6
2021-03-19,04:00,997.3
2021-03-19,05:00,998.3
2021-03-19,06:00,997
2021-03-19,07:00,997.5
2021-03-19,08:00,1000.2
2021-03-19,09:00,999.4
2021-03-19,10:00,994
2021-03-19,11:00,989
2021-03-19,12:00,992.3
2021-03-19,13:00,976.9
2021-03-19,14:00,959.7
2021-03-19,15:00,951.8
2021-03-19,16:00,957
2021-03-19,17:00,932.4
2021-03-19,18:00,979
2021-03-19,19:00,992.7
2021-03-19,20:00,997.4
2021-03-19,21:00,998.4
2021-03-19,22:00,1002.5
2021-03-19,23:00,987
2021-03-20,00:00,987.3
2021-03-20,01:00,987.9
2021-03-20,02:00,993.2
2021-03-20,03:00,993
2021-03-20,04:00,998.7
2021-03-20,05:00,994.3
2021-03-20,06:00,995.8
2021-03-20,07:00,999.4
2021-03-20,08:00,1001.4
2021-03-20,09:00,1002.5
2021-03-20,10:00,1001.9
2021-03-20,11:00,1000.9
2021-03-20,12:00,1002.1
2021-03-20,13:00,1002.3
2021-03-20,14:00,1000.5
2021-03-20,15:00,997.2
2021-03-20,16:00,997.1
2021-03-20,17:00,996.8
2021-03-20,18:00,1000.2
2021-03-20,19:00,998.2
2021-03-20,20:00,996.7
2021-03-20,21:00,995.4
2021-03-20,22:00,992.7
2021-03-20,23:00,992.8
2021-03-21,00:00,992.6
2021-03-21,01:00,994.7
2021-03-21,02:00,995.4
2021-03-21,03:00,997.2
2021-03-21,04:00,994.7
2021-03-21,05:00,996.2
2021-03-21,06:00,998.8
2021-03-21,07:00,994.9
2021-03-21,08:00,998.5
2021-03-21,09:00,994.3
2021-03-21,10:00,-999
2021-03-21,11:00,946.8
2021-03-21,12:00,935.5
2021-03-21,13:00,-999
2021-03-21,14:00,-999
2021-03-21,15:00,-999
2021-03-21,16:00,-999
2021-03-21,17:00,-999
2021-03-21,18:00,-999
2021-03-21,19:00,984.5
2021-03-21,20:00,879.6
2021-03-21,21:00,981.7
2021-03-21,22:00,961.6
2021-03-21,23:00,-999
2021-03-22,00:00,975.4
2021-03-22,01:00,962.8
2021-03-22,02:00,980.1
2021-03-22,03:00,987.3
2021-03-22,04:00,-999
2021-03-22,05:00,932.4
2021-03-22,06:00,907.8
2021-03-22,07:00,866.7
2021-03-22,08:00,926.7
2021-03-22,09:00,-999
2021-03-22,10:00,-999
2021-03-22,11:00,-999
2021-03-22,12:00,-999
2021-03-22,13:00,-999
2021-03-22,14:00,-999
2021-03-22,15:00,-999
2021-03-22,16:00,-999
2021-03-22,17:00,-999
2021-03-22,18:00,-999
2021-03-22,19:00,-999
2021-03-22,20:00,-999
2021-03-22,21:00,-999
2021-03-22,22:00,886.8
2021-03-22,23:00,932.5
2021-03-23,00:00,-999
2021-03-23,01:00,865.3
2021-03-23,02:00,975.4
2021-03-23,03:00,929.6
2021-03-23,04:00,965.4
2021-03-23,05:00,963.2
2021-03-23,06:00,894
2021-03-23,07:00,-999
2021-03-23,08:00,1000.2
2021-03-23,09:00,1002
2021-03-23,10:00,998.1
2021-03-23,11:00,992.5
2021-03-23,12:00,993.6
2021-03-23,13:00,979.4
2021-03-23,14:00,987.3
2021-03-23,15:00,982.3
2021-03-23,16:00,986.7
2021-03-23,17:00,964.3
2021-03-23,18:00,984.2
2021-03-23,19:00,988.7
2021-03-23,20:00,987
2021-03-23,21:00,988
2021-03-23,22:00,980.6
2021-03-23,23:00,993.9
2021-03-24,00:00,993.9
2021-03-24,01:00,992.3
2021-03-24,02:00,943.3
2021-03-24,03:00,920.9
2021-03-24,04:00,978
2021-03-24,05:00,914
2021-03-24,06:00,979.4
2021-03-24,07:00,978
2021-03-24,08:00,991.9
2021-03-24,09:00,997.2
2021-03-24,10:00,988.7
2021-03-24,11:00,995.8
2021-03-24,12:00,995.7
2021-03-24,13:00,995.9
2021-03-24,14:00,994.9
2021-03-24,15:00,992.4
2021-03-24,16:00,994.4
2021-03-24,17:00,995.5
2021-03-24,18:00,993.6
2021-03-24,19:00,986.7
2021-03-24,20:00,999.6
2021-03-24,21:00,1001.8
2021-03-24,22:00,999.8
2021-03-24,23:00,1002.6
2021-03-25,00:00,999.9
2021-03-25,01:00,998.6
2021-03-25,02:00,993.1
2021-03-25,03:00,890.9
2021-03-25,04:00,-999
2021-03-25,05:00,877.7
2021-03-25,06:00,886.7
2021-03-25,07:00,869.2
2021-03-25,08:00,-999
2021-03-25,09:00,856.9
2021-03-25,10:00,890.5
2021-03-25,11:00,934.9
2021-03-25,12:00,924.6
2021-03-25,13:00,912.7
2021-03-25,14:00,858.7
2021-03-25,15:00,901.3
2021-03-25,16:00,851.8
2021-03-25,17:00,-999
2021-03-25,18:00,-999
2021-03-25,19:00,-999
2021-03-25,20:00,893.6
2021-03-25,21:00,947.1
2021-03-25,22:00,961.6
2021-03-25,23:00,970.8
2021-03-26,00:00,930.4
2021-03-26,01:00,883.7
2021-03-26,02:00,913.5
2021-03-26,03:00,891.2
2021-03-26,04:00,-999
2021-03-26,05:00,889.2
2021-03-26,06:00,957
2021-03-26,07:00,951.4
2021-03-26,08:00,969.7
2021-03-26,09:00,971
2021-03-26,10:00,917.1
2021-03-26,11:00,-999
2021-03-26,12:00,-999
2021-03-26,13:00,-999
2021-03-26,14:00,-999
2021-03-26,15:00,-999
2021-03-26,16:00,-999
2021-03-26,17:00,-999
2021-03-26,18:00,974.3
2021-03-26,19:00,967.6
2021-03-26,20:00,969.6
2021-03-26,21:00,968.9
2021-03-26,22:00,967.3
2021-03-26,23:00,902.1
2021-03-27,00:00,939.2
2021-03-27,01:00,-999
2021-03-27,02:00,-999
2021-03-27,03:00,962.8
2021-03-27,04:00,894.2
2021-03-27,05:00,971.4
2021-03-27,06:00,936.4
2021-03-27,07:00,-999
2021-03-27,08:00,898.8
2021-03-27,09:00,957
2021-03-27,10:00,962.9
2021-03-27,11:00,933.9
2021-03-27,12:00,-999
2021-03-27,13:00,-999
2021-03-27,14:00,-999
2021-03-27,15:00,-999
2021-03-27,16:00,-999
2021-03-27,17:00,-999
2021-03-27,18:00,-999
2021-03-27,19:00,-999
2021-03-27,20:00,934.1
2021-03-27,21:00,977.9
2021-03-27,22:00,976.3
2021-03-27,23:00,975.6
2021-03-28,00:00,976.2
2021-03-28,01:00,979.2
2021-03-28,02:00,983.1
2021-03-28,03:00,976.6
2021-03-28,04:00,978.6
2021-03-28,05:00,-999
2021-03-28,06:00,983.6
2021-03-28,07:00,993.5
2021-03-28,08:00,994.7
2021-03-28,09:00,996.6
2021-03-28,10:00,969.9
2021-03-28,11:00,944.9
2021-03-28,12:00,977.4
2021-03-28,13:00,921.7
2021-03-28,14:00,985.6
2021-03-28,15:00,986.5
2021-03-28,16:00,-999
2021-03-28,17:00,-999
2021-03-28,18:00,-999
2021-03-28,19:00,-999
2021-03-28,20:00,-999
2021-03-28,21:00,-999
2021-03-28,22:00,-999
2021-03-28,23:00,-999
2021-03-29,00:00,-999
2021-03-29,01:00,-999
2021-03-29,02:00,-999
2021-03-29,03:00,-999
2021-03-29,04:00,930.2
2021-03-29,05:00,933.4
2021-03-29,06:00,915.9
2021-03-29,07:00,-999
2021-03-29,08:00,-999
2021-03-29,09:00,-999
2021-03-29,10:00,-999
2021-03-29,11:00,-999
2021-03-29,12:00,-999
2021-03-29,13:00,-999
2021-03-29,14:00,-999
2021-03-29,15:00,-999
2021-03-29,16:00,-999
2021-03-29,17:00,-999
2021-03-29,18:00,-999
2021-03-29,19:00,-999
2021-03-29,20:00,-999
2021-03-29,21:00,-999
2021-03-29,22:00,-999
2021-03-29,23:00,-999
2021-03-30,00:00,-999
2021-03-30,01:00,-999
2021-03-30,02:00,-999
2021-03-30,03:00,-999
2021-03-30,04:00,-999
2021-03-30,05:00,-999
2021-03-30,06:00,-999
2021-03-30,07:00,-999
2021-03-30,08:00,-999
2021-03-30,09:00,-999
2021-03-30,10:00,-999
2021-03-30,11:00,-999
2021-03-30,12:00,-999
2021-03-30,13:00,-999
2021-03-30,14:00,-999
2021-03-30,15:00,-999
2021-03-30,16:00,-999
2021-03-30,17:00,-999
2021-03-30,18:00,-999
2021-03-30,19:00,-999
2021-03-30,20:00,-999
2021-03-30,21:00,-999
2021-03-30,22:00,-999
2021-03-30,23:00,-999
2021-03-31,00:00,-999
2021-03-31,01:00,-999
2021-03-31,02:00,-999
2021-03-31,03:00,-999
2021-03-31,04:00,-999
2021-03-31,05:00,959.1
2021-03-31,06:00,-999
2021-03-31,07:00,-999
2021-03-31,08:00,-999
2021-03-31,09:00,-999
2021-03-31,10:00,-999
2021-03-31,11:00,-999
2021-03-31,12:00,-999
2021-03-31,13:00,-999
2021-03-31,14:00,-999
2021-03-31,15:00,-999
2021-03-31,16:00,-999
2021-03-31,17:00,-999
2021-03-31,18:00,-999
2021-03-31,19:00,-999
2021-03-31,20:00,-999
2021-03-31,21:00,-999
2021-03-31,22:00,-999
2021-03-31,23:00,-999
